Home   Weather   Cheyenne   Past weeks

Flag for USA Past Weather in Cheyenne, Wyoming, USA — Yesterday and Last 2 Weeks

Now
38 °F

Clear.


Feels Like: 29 °F
Forecast: 36 / 55 °F
Wind: 16 mph from Northwest

Location: Cheyenne Airport

Current Time: Feb 20, 2017 at 4:26:28 am

Latest Report: Feb 20, 2017 at 3:53 am


Visibility: 10 mi

Pressure: 29.74 "Hg (23.65 "Hg at 1855m altitude)

Humidity: 37%

Dew Point: 14 °F

Location of CheyenneLocation

Past Weather in Cheyenne — Graph

°F

Cheyenne Temperature Yesterday

Maximum temperature yesterday: 56 °F (at 1:53 pm)
Minimum temperature yesterday: 36 °F (at 12:53 am)
Average temperature yesterday: 45 °F

High & Low Weather Summary for the Past Weeks

 TemperatureHumidityPressure
High68 °F (Feb 10, 12:53 pm)85% (Feb 11, 8:53 pm)30.54 "Hg (Feb 11, 8:53 pm)
Low17 °F (Feb 12, 5:53 am)4% (Feb 16, 1:53 pm)29.45 "Hg (Feb 7, 12:53 pm)
Average43 °F42%29.86 "Hg
* Reported Feb 5 2:53 am — Feb 20 2:53 am, Cheyenne, Weather by CustomWeather, © 2017

Note: Actual official high and low records may vary slightly from our data, if they occured in-between our weather recording intervals... More about our weather records

Advertising

Cheyenne Weather History for the Previous 24 Hours

Scroll right to see more
 ConditionsComfort  
Time TempWeatherWind HumidityBarometerVisibility
2:53 am
Mon, Feb 20
38 °FClear.16 mph36%29.72 "Hg10 mi
1:53 am39 °FClear.17 mph36%29.70 "Hg10 mi
12:53 am40 °FPassing clouds.14 mph36%29.69 "Hg10 mi
11:53 pm
Sun, Feb 19
42 °FOvercast.24 mph36%29.64 "Hg10 mi
10:53 pm42 °FOvercast.20 mph45%29.63 "Hg10 mi
9:53 pm41 °FMostly cloudy.13 mph62%29.62 "Hg10 mi
8:53 pm43 °FOvercast.8 mph71%29.62 "Hg10 mi
7:53 pm44 °FLight rain. Mostly cloudy.14 mph68%29.61 "Hg10 mi
6:53 pm44 °FMostly cloudy.13 mph68%29.58 "Hg10 mi
5:53 pm45 °FOvercast.16 mph65%29.55 "Hg10 mi
4:53 pm54 °FBroken clouds.No wind31%29.51 "Hg10 mi
3:53 pm55 °FSunny.3 mph29%29.49 "Hg10 mi
2:53 pm56 °FSunny.8 mph28%29.49 "Hg10 mi
1:53 pm56 °FSunny.8 mph30%29.49 "Hg10 mi
12:53 pm55 °FSunny.10 mph31%29.54 "Hg10 mi
11:53 am53 °FSunny.8 mph35%29.59 "Hg10 mi
10:53 am51 °FScattered clouds.13 mph38%29.63 "Hg10 mi
9:53 am51 °FSunny.9 mph39%29.63 "Hg10 mi
8:53 am45 °FSunny.6 mph45%29.65 "Hg10 mi
7:53 am42 °FSunny.6 mph51%29.60 "Hg10 mi
6:53 am44 °FSunny.15 mph47%29.57 "Hg10 mi
5:53 am44 °FClear.16 mph49%29.55 "Hg10 mi
4:53 am37 °FClear.9 mph62%29.57 "Hg10 mi
Weather by CustomWeather, © 2017

See weather overviewHow to use our weather pages